When you browse on this site, cookies collect data to enhance your experience and personalize the content and advertising you see.
Visit our Privacy Policy to learn more. By continuing to use the site, you agree to this use of cookies and data.
  • In Schweiz
  • Länderverzeichnis
  • Für 7 Tage
  • Wassertemperatur
  • Satellitenkarten
  • Wetterkarte
  • Widgets
  • user-avatar
    Anmelden

    Stündliche Wetter Beijing

    Heute, 17 Juni, Montag

    Zeit Temperatur Niederschläge Wind Luftdruck Luftfeuchtigkeit
    00:00 +23°C° 0 mm 2 m/S 754 mmHg 55%
    01:00 +23°C° 0 mm 2 m/S 753 mmHg 53%
    02:00 +21°C° 0 mm 3 m/S 753 mmHg 53%
    03:00 +21°C° 0 mm 2 m/S 753 mmHg 54%
    04:00 +21°C° 0 mm 2 m/S 753 mmHg 55%
    05:00 +21°C° 0 mm 1 m/S 753 mmHg 55%
    06:00 +22°C° 0 mm 1 m/S 753 mmHg 52%
    07:00 +24°C° 0 mm 1 m/S 753 mmHg 48%
    08:00 +25°C° 0 mm 1 m/S 753 mmHg 45%
    09:00 +26°C° 0 mm 1 m/S 753 mmHg 41%
    10:00 +28°C° 0 mm 2 m/S 752 mmHg 38%
    11:00 +29°C° 0 mm 2 m/S 752 mmHg 34%
    12:00 +31°C° 0 mm 2 m/S 751 mmHg 32%
    13:00 +33°C° 0 mm 3 m/S 750 mmHg 30%
    14:00 +33°C° 0 mm 3 m/S 751 mmHg 31%
    15:00 +34°C° 0.1 mm 2 m/S 751 mmHg 31%
    16:00 +34°C° 0.1 mm 2 m/S 750 mmHg 30%
    17:00 +35°C° 0.1 mm 2 m/S 750 mmHg 30%
    18:00 +32°C° 0.3 mm 2 m/S 750 mmHg 35%
    19:00 +30°C° 0.3 mm 2 m/S 750 mmHg 41%
    20:00 +29°C° 0.3 mm 2 m/S 750 mmHg 46%
    21:00 +28°C° 0.1 mm 2 m/S 750 mmHg 48%
    22:00 +28°C° 0.1 mm 1 m/S 750 mmHg 50%
    23:00 +28°C° 0.1 mm 1 m/S 750 mmHg 51%

    Morgen, 18 Juni, Dienstag

    Zeit Temperatur Niederschläge Wind Luftdruck Luftfeuchtigkeit
    00:00 +27°C° 0.4 mm 1 m/S 750 mmHg 54%
    01:00 +26°C° 0.4 mm 1 m/S 750 mmHg 58%
    02:00 +26°C° 0.4 mm 1 m/S 750 mmHg 61%
    03:00 +25°C° 0.1 mm 1 m/S 749 mmHg 63%
    04:00 +25°C° 0.1 mm 1 m/S 749 mmHg 65%
    05:00 +24°C° 0.1 mm 1 m/S 749 mmHg 67%
    06:00 +25°C° 0.1 mm 1 m/S 749 mmHg 62%
    07:00 +26°C° 0.1 mm 1 m/S 749 mmHg 58%
    08:00 +28°C° 0.1 mm 1 m/S 749 mmHg 53%
    09:00 +30°C° 0 mm 1 m/S 749 mmHg 47%
    10:00 +32°C° 0 mm 1 m/S 749 mmHg 41%
    11:00 +34°C° 0 mm 1 m/S 748 mmHg 35%
    12:00 +36°C° 0 mm 1 m/S 748 mmHg 32%
    13:00 +37°C° 0 mm 1 m/S 747 mmHg 29%
    14:00 +39°C° 0 mm 1 m/S 747 mmHg 26%
    15:00 +39°C° 0 mm 2 m/S 747 mmHg 26%
    16:00 +39°C° 0 mm 2 m/S 747 mmHg 25%
    17:00 +39°C° 0 mm 2 m/S 747 mmHg 25%
    18:00 +37°C° 0.1 mm 2 m/S 747 mmHg 30%
    19:00 +35°C° 0.1 mm 2 m/S 748 mmHg 36%
    20:00 +33°C° 0.1 mm 3 m/S 748 mmHg 41%
    21:00 +31°C° 0.1 mm 3 m/S 749 mmHg 47%
    22:00 +29°C° 0.1 mm 3 m/S 749 mmHg 54%
    23:00 +28°C° 0.1 mm 3 m/S 750 mmHg 60%

    übermorgen, 19 Juni, Mittwoch

    Zeit Temperatur Niederschläge Wind Luftdruck Luftfeuchtigkeit
    00:00 +27°C° 0.3 mm 2 m/S 750 mmHg 63%
    01:00 +27°C° 0.3 mm 2 m/S 750 mmHg 66%
    02:00 +26°C° 0.3 mm 2 m/S 751 mmHg 68%
    03:00 +26°C° 0.5 mm 2 m/S 750 mmHg 69%
    04:00 +25°C° 0.5 mm 1 m/S 750 mmHg 70%
    05:00 +25°C° 0.5 mm 1 m/S 750 mmHg 71%
    06:00 +26°C° 0.1 mm 1 m/S 750 mmHg 66%
    07:00 +27°C° 0.1 mm 1 m/S 750 mmHg 61%
    08:00 +28°C° 0.1 mm 1 m/S 751 mmHg 56%
    09:00 +30°C° 0 mm 2 m/S 750 mmHg 50%
    10:00 +31°C° 0 mm 2 m/S 750 mmHg 45%
    11:00 +34°C° 0 mm 2 m/S 750 mmHg 40%
    12:00 +35°C° 0 mm 2 m/S 749 mmHg 37%
    13:00 +37°C° 0 mm 2 m/S 749 mmHg 34%
    14:00 +37°C° 0 mm 1 m/S 749 mmHg 31%
    15:00 +38°C° 0 mm 2 m/S 748 mmHg 30%
    16:00 +38°C° 0 mm 2 m/S 748 mmHg 30%
    17:00 +38°C° 0 mm 2 m/S 748 mmHg 30%
    18:00 +37°C° 0 mm 2 m/S 748 mmHg 33%
    19:00 +35°C° 0 mm 3 m/S 748 mmHg 37%
    20:00 +34°C° 0 mm 3 m/S 749 mmHg 40%
    21:00 +31°C° 0.1 mm 3 m/S 749 mmHg 45%
    22:00 +30°C° 0.1 mm 2 m/S 750 mmHg 50%
    23:00 +28°C° 0.1 mm 2 m/S 750 mmHg 54%

    20 Juni, Donnerstag

    Zeit Temperatur Niederschläge Wind Luftdruck Luftfeuchtigkeit
    00:00 +28°C° 0.2 mm 2 m/S 750 mmHg 56%
    01:00 +27°C° 0.2 mm 1 m/S 750 mmHg 59%
    02:00 +26°C° 0.2 mm 1 m/S 750 mmHg 61%
    03:00 +26°C° 0 mm 1 m/S 750 mmHg 62%
    04:00 +26°C° 0 mm 1 m/S 749 mmHg 62%
    05:00 +26°C° 0 mm 1 m/S 749 mmHg 63%
    06:00 +27°C° 0 mm 1 m/S 749 mmHg 58%
    07:00 +28°C° 0 mm 1 m/S 750 mmHg 53%
    08:00 +30°C° 0 mm 1 m/S 750 mmHg 48%
    09:00 +32°C° 0 mm 1 m/S 749 mmHg 43%
    10:00 +33°C° 0 mm 1 m/S 749 mmHg 38%
    11:00 +35°C° 0 mm 1 m/S 748 mmHg 33%
    12:00 +37°C° 0 mm 1 m/S 748 mmHg 30%
    13:00 +39°C° 0 mm 1 m/S 748 mmHg 26%
    14:00 +41°C° 0 mm 1 m/S 747 mmHg 22%
    15:00 +41°C° 0 mm 1 m/S 747 mmHg 21%
    16:00 +41°C° 0 mm 1 m/S 747 mmHg 19%
    17:00 +41°C° 0 mm 1 m/S 747 mmHg 18%
    18:00 +40°C° 0 mm 1 m/S 747 mmHg 20%
    19:00 +37°C° 0 mm 1 m/S 747 mmHg 22%
    20:00 +37°C° 0 mm 2 m/S 748 mmHg 25%
    21:00 +36°C° 0 mm 2 m/S 748 mmHg 28%
    22:00 +35°C° 0 mm 2 m/S 748 mmHg 32%
    23:00 +33°C° 0 mm 1 m/S 749 mmHg 35%

    21 Juni, Freitag

    Zeit Temperatur Niederschläge Wind Luftdruck Luftfeuchtigkeit
    00:00 +32°C° 0 mm 2 m/S 749 mmHg 38%
    01:00 +31°C° 0 mm 2 m/S 749 mmHg 42%
    02:00 +30°C° 0 mm 3 m/S 749 mmHg 45%
    03:00 +29°C° 0.8 mm 3 m/S 750 mmHg 51%
    04:00 +28°C° 0.8 mm 3 m/S 750 mmHg 57%
    05:00 +26°C° 0.8 mm 4 m/S 751 mmHg 64%
    06:00 +27°C° 0 mm 4 m/S 751 mmHg 60%
    07:00 +27°C° 0 mm 4 m/S 752 mmHg 57%
    08:00 +27°C° 0 mm 4 m/S 752 mmHg 54%
    09:00 +29°C° 0 mm 3 m/S 752 mmHg 49%
    10:00 +30°C° 0 mm 3 m/S 752 mmHg 44%
    11:00 +33°C° 0 mm 3 m/S 752 mmHg 39%
    12:00 +34°C° 0 mm 2 m/S 752 mmHg 36%
    13:00 +35°C° 0 mm 2 m/S 751 mmHg 33%
    14:00 +36°C° 0 mm 2 m/S 751 mmHg 30%
    15:00 +36°C° 0 mm 2 m/S 751 mmHg 29%
    16:00 +37°C° 0 mm 2 m/S 751 mmHg 28%
    17:00 +37°C° 0 mm 2 m/S 751 mmHg 27%
    18:00 +35°C° 0.1 mm 2 m/S 751 mmHg 31%
    19:00 +34°C° 0.1 mm 2 m/S 752 mmHg 35%
    20:00 +31°C° 0.1 mm 3 m/S 752 mmHg 38%
    21:00 +30°C° 0 mm 2 m/S 753 mmHg 39%
    22:00 +30°C° 0 mm 1 m/S 753 mmHg 39%
    23:00 +29°C° 0 mm 1 m/S 754 mmHg 39%

    22 Juni, Samstag

    Zeit Temperatur Niederschläge Wind Luftdruck Luftfeuchtigkeit
    00:00 +28°C° 0 mm 1 m/S 754 mmHg 42%
    01:00 +28°C° 0 mm 1 m/S 754 mmHg 46%
    02:00 +27°C° 0 mm 1 m/S 754 mmHg 49%
    03:00 +27°C° 0 mm 1 m/S 754 mmHg 51%
    04:00 +27°C° 0 mm 1 m/S 754 mmHg 52%
    05:00 +26°C° 0 mm 1 m/S 754 mmHg 54%
    06:00 +28°C° 0 mm 1 m/S 754 mmHg 49%
    07:00 +29°C° 0 mm 1 m/S 754 mmHg 43%
    08:00 +31°C° 0 mm 1 m/S 754 mmHg 37%
    09:00 +33°C° 0 mm 1 m/S 753 mmHg 31%
    10:00 +35°C° 0 mm 1 m/S 753 mmHg 24%
    11:00 +37°C° 0 mm 1 m/S 752 mmHg 17%
    12:00 +39°C° 0 mm 1 m/S 752 mmHg 16%
    13:00 +39°C° 0 mm 2 m/S 751 mmHg 14%
    14:00 +40°C° 0 mm 2 m/S 750 mmHg 13%
    15:00 +40°C° 0 mm 2 m/S 750 mmHg 13%
    16:00 +40°C° 0 mm 2 m/S 749 mmHg 13%
    17:00 +40°C° 0 mm 2 m/S 749 mmHg 13%
    18:00 +39°C° 0 mm 2 m/S 749 mmHg 14%
    19:00 +38°C° 0 mm 2 m/S 749 mmHg 16%
    20:00 +36°C° 0 mm 3 m/S 749 mmHg 18%
    21:00 +35°C° 0 mm 2 m/S 750 mmHg 20%
    22:00 +34°C° 0 mm 2 m/S 750 mmHg 22%
    23:00 +32°C° 0 mm 2 m/S 750 mmHg 23%
    Mehr zeigen